When you browse on this site, cookies collect data to enhance your experience and personalize the content and advertising you see.
Visit our Privacy Policy to learn more. By continuing to use the site, you agree to this use of cookies and data.
  • In Österreich
  • Länderverzeichnis
  • Für 7 Tage
  • Wassertemperatur
  • Wetterkarte
  • News
  • Widgets
  • user-avatar
    Anmelden

    Stündliche Wetter Stoughton

    Heute, 5 Juni, Freitag

    Zeit Temperatur Niederschläge Wind Luftdruck Luftfeuchtigkeit
    00:00 +20°C° 0 mm 4 m/S 754 mmHg 74%
    01:00 +20°C° 0 mm 4 m/S 754 mmHg 75%
    02:00 +19°C° 0.2 mm 3 m/S 754 mmHg 81%
    03:00 +19°C° 0.2 mm 2 m/S 753 mmHg 86%
    04:00 +20°C° 0.2 mm 1 m/S 753 mmHg 92%
    05:00 +19°C° 0.2 mm 2 m/S 753 mmHg 92%
    06:00 +19°C° 0.2 mm 3 m/S 754 mmHg 93%
    07:00 +19°C° 0.2 mm 3 m/S 754 mmHg 93%
    08:00 +20°C° 0.1 mm 4 m/S 754 mmHg 90%
    09:00 +21°C° 0.1 mm 4 m/S 754 mmHg 87%
    10:00 +22°C° 0.1 mm 4 m/S 753 mmHg 84%
    11:00 +23°C° 0 mm 4 m/S 753 mmHg 80%
    12:00 +25°C° 0 mm 4 m/S 753 mmHg 75%
    13:00 +26°C° 0 mm 4 m/S 753 mmHg 70%
    14:00 +26°C° 0 mm 4 m/S 753 mmHg 70%
    15:00 +26°C° 0 mm 5 m/S 752 mmHg 69%
    16:00 +26°C° 0 mm 5 m/S 752 mmHg 68%
    17:00 +25°C° 0 mm 5 m/S 752 mmHg 74%
    18:00 +23°C° 0 mm 4 m/S 752 mmHg 79%
    19:00 +22°C° 0 mm 4 m/S 753 mmHg 85%
    20:00 +21°C° 0 mm 4 m/S 753 mmHg 86%
    21:00 +21°C° 0 mm 4 m/S 753 mmHg 88%
    22:00 +21°C° 0 mm 4 m/S 753 mmHg 90%
    23:00 +21°C° 0 mm 4 m/S 752 mmHg 89%

    Morgen, 6 Juni, Samstag

    Zeit Temperatur Niederschläge Wind Luftdruck Luftfeuchtigkeit
    00:00 +21°C° 0 mm 4 m/S 752 mmHg 88%
    01:00 +21°C° 0 mm 4 m/S 752 mmHg 87%
    02:00 +21°C° 0 mm 4 m/S 751 mmHg 88%
    03:00 +21°C° 0 mm 4 m/S 751 mmHg 89%
    04:00 +21°C° 0 mm 3 m/S 751 mmHg 91%
    05:00 +21°C° 0 mm 3 m/S 751 mmHg 89%
    06:00 +21°C° 0 mm 3 m/S 750 mmHg 88%
    07:00 +22°C° 0 mm 3 m/S 750 mmHg 87%
    08:00 +24°C° 0 mm 3 m/S 750 mmHg 82%
    09:00 +25°C° 0 mm 3 m/S 750 mmHg 77%
    10:00 +26°C° 0 mm 3 m/S 749 mmHg 71%
    11:00 +27°C° 0 mm 3 m/S 749 mmHg 66%
    12:00 +29°C° 0 mm 3 m/S 749 mmHg 60%
    13:00 +30°C° 0 mm 3 m/S 748 mmHg 55%
    14:00 +29°C° 1.3 mm 3 m/S 748 mmHg 62%
    15:00 +27°C° 1.3 mm 3 m/S 747 mmHg 69%
    16:00 +26°C° 1.3 mm 3 m/S 747 mmHg 76%
    17:00 +25°C° 0.4 mm 2 m/S 747 mmHg 75%
    18:00 +25°C° 0.4 mm 2 m/S 747 mmHg 74%
    19:00 +24°C° 0.4 mm 2 m/S 748 mmHg 73%
    20:00 +23°C° 0 mm 2 m/S 748 mmHg 71%
    21:00 +21°C° 0 mm 3 m/S 748 mmHg 69%
    22:00 +20°C° 0 mm 3 m/S 748 mmHg 67%
    23:00 +19°C° 0 mm 3 m/S 748 mmHg 68%

    übermorgen, 7 Juni, Sonntag

    Zeit Temperatur Niederschläge Wind Luftdruck Luftfeuchtigkeit
    00:00 +18°C° 0 mm 3 m/S 748 mmHg 69%
    01:00 +17°C° 0 mm 3 m/S 748 mmHg 70%
    02:00 +17°C° 0 mm 3 m/S 748 mmHg 71%
    03:00 +16°C° 0 mm 3 m/S 748 mmHg 71%
    04:00 +16°C° 0 mm 3 m/S 748 mmHg 71%
    05:00 +17°C° 0 mm 4 m/S 749 mmHg 68%
    06:00 +18°C° 0 mm 4 m/S 750 mmHg 65%
    07:00 +18°C° 0 mm 4 m/S 750 mmHg 62%
    08:00 +18°C° 0 mm 4 m/S 750 mmHg 63%
    09:00 +19°C° 0 mm 4 m/S 751 mmHg 65%
    10:00 +19°C° 0 mm 4 m/S 751 mmHg 66%
    11:00 +18°C° 0.1 mm 4 m/S 751 mmHg 71%
    12:00 +17°C° 0.1 mm 3 m/S 752 mmHg 75%
    13:00 +16°C° 0.1 mm 3 m/S 752 mmHg 80%
    14:00 +16°C° 0.1 mm 3 m/S 752 mmHg 76%
    15:00 +17°C° 0.1 mm 3 m/S 752 mmHg 72%
    16:00 +17°C° 0.1 mm 2 m/S 752 mmHg 68%
    17:00 +17°C° 0 mm 2 m/S 753 mmHg 71%
    18:00 +16°C° 0 mm 1 m/S 753 mmHg 74%
    19:00 +14°C° 0 mm 0 m/S 754 mmHg 77%
    20:00 +14°C° 0 mm 0 m/S 754 mmHg 78%
    21:00 +13°C° 0 mm 0 m/S 755 mmHg 79%
    22:00 +13°C° 0 mm 0 m/S 755 mmHg 80%
    23:00 +13°C° 0 mm 1 m/S 756 mmHg 82%

    8 Juni, Montag

    Zeit Temperatur Niederschläge Wind Luftdruck Luftfeuchtigkeit
    00:00 +13°C° 0 mm 1 m/S 756 mmHg 85%
    01:00 +12°C° 0 mm 1 m/S 756 mmHg 87%
    02:00 +12°C° 0 mm 1 m/S 756 mmHg 88%
    03:00 +12°C° 0 mm 1 m/S 756 mmHg 88%
    04:00 +12°C° 0 mm 1 m/S 756 mmHg 89%
    05:00 +14°C° 0 mm 1 m/S 757 mmHg 79%
    06:00 +15°C° 0 mm 1 m/S 757 mmHg 69%
    07:00 +17°C° 0 mm 2 m/S 758 mmHg 59%
    08:00 +19°C° 0 mm 2 m/S 758 mmHg 51%
    09:00 +20°C° 0 mm 2 m/S 758 mmHg 43%
    10:00 +22°C° 0 mm 3 m/S 758 mmHg 35%
    11:00 +23°C° 0 mm 2 m/S 758 mmHg 34%
    12:00 +24°C° 0 mm 2 m/S 758 mmHg 33%
    13:00 +25°C° 0 mm 2 m/S 758 mmHg 32%
    14:00 +25°C° 0 mm 2 m/S 758 mmHg 33%
    15:00 +25°C° 0 mm 2 m/S 758 mmHg 35%
    16:00 +25°C° 0 mm 2 m/S 757 mmHg 36%
    17:00 +23°C° 0 mm 2 m/S 758 mmHg 45%
    18:00 +20°C° 0 mm 3 m/S 758 mmHg 54%
    19:00 +18°C° 0 mm 3 m/S 758 mmHg 63%
    20:00 +17°C° 0 mm 3 m/S 758 mmHg 66%
    21:00 +16°C° 0 mm 3 m/S 758 mmHg 69%
    22:00 +14°C° 0 mm 3 m/S 759 mmHg 72%
    23:00 +13°C° 0 mm 3 m/S 759 mmHg 73%

    9 Juni, Dienstag

    Zeit Temperatur Niederschläge Wind Luftdruck Luftfeuchtigkeit
    00:00 +14°C° 0 mm 2 m/S 759 mmHg 73%
    01:00 +14°C° 0 mm 2 m/S 759 mmHg 74%
    02:00 +14°C° 0 mm 2 m/S 759 mmHg 75%
    03:00 +13°C° 0 mm 2 m/S 759 mmHg 76%
    04:00 +13°C° 0 mm 1 m/S 759 mmHg 76%
    05:00 +15°C° 0 mm 1 m/S 759 mmHg 70%
    06:00 +18°C° 0 mm 1 m/S 759 mmHg 63%
    07:00 +20°C° 0 mm 1 m/S 760 mmHg 57%
    08:00 +23°C° 0 mm 1 m/S 760 mmHg 52%
    09:00 +25°C° 0 mm 1 m/S 760 mmHg 47%
    10:00 +27°C° 0 mm 1 m/S 760 mmHg 42%
    11:00 +28°C° 0 mm 2 m/S 760 mmHg 40%
    12:00 +29°C° 0 mm 2 m/S 760 mmHg 38%
    13:00 +29°C° 0 mm 3 m/S 759 mmHg 37%
    14:00 +29°C° 0 mm 3 m/S 759 mmHg 39%
    15:00 +28°C° 0 mm 4 m/S 759 mmHg 41%
    16:00 +28°C° 0 mm 5 m/S 759 mmHg 44%
    17:00 +25°C° 0 mm 5 m/S 759 mmHg 51%
    18:00 +22°C° 0 mm 4 m/S 760 mmHg 58%
    19:00 +20°C° 0 mm 4 m/S 760 mmHg 65%
    20:00 +20°C° 0 mm 4 m/S 760 mmHg 66%
    21:00 +19°C° 0 mm 4 m/S 760 mmHg 67%
    22:00 +18°C° 0 mm 4 m/S 760 mmHg 67%
    23:00 +17°C° 0 mm 4 m/S 760 mmHg 67%

    10 Juni, Mittwoch

    Zeit Temperatur Niederschläge Wind Luftdruck Luftfeuchtigkeit
    00:00 +17°C° 0 mm 4 m/S 761 mmHg 68%
    01:00 +17°C° 0 mm 3 m/S 761 mmHg 68%
    02:00 +16°C° 0 mm 3 m/S 761 mmHg 69%
    03:00 +16°C° 0 mm 3 m/S 761 mmHg 71%
    04:00 +16°C° 0 mm 3 m/S 761 mmHg 72%
    05:00 +17°C° 0 mm 3 m/S 761 mmHg 69%
    06:00 +19°C° 0 mm 3 m/S 761 mmHg 65%
    07:00 +20°C° 0 mm 4 m/S 762 mmHg 62%
    08:00 +22°C° 0 mm 4 m/S 762 mmHg 57%
    09:00 +23°C° 0 mm 4 m/S 762 mmHg 51%
    10:00 +26°C° 0 mm 4 m/S 762 mmHg 46%
    11:00 +26°C° 0 mm 4 m/S 761 mmHg 44%
    12:00 +27°C° 0 mm 5 m/S 761 mmHg 41%
    13:00 +28°C° 0 mm 5 m/S 761 mmHg 39%
    14:00 +27°C° 0 mm 5 m/S 761 mmHg 42%
    15:00 +26°C° 0 mm 5 m/S 761 mmHg 44%
    16:00 +25°C° 0 mm 5 m/S 761 mmHg 47%
    17:00 +22°C° 0 mm 5 m/S 761 mmHg 53%
    18:00 +20°C° 0 mm 4 m/S 761 mmHg 59%
    19:00 +18°C° 0 mm 4 m/S 762 mmHg 65%
    20:00 +17°C° 0 mm 3 m/S 762 mmHg 70%
    21:00 +16°C° 0 mm 3 m/S 762 mmHg 76%
    22:00 +14°C° 0 mm 3 m/S 762 mmHg 81%
    23:00 +14°C° 0 mm 2 m/S 762 mmHg 83%
    Mehr zeigen